Погода Кемерово

Погода Кемерово : погода сейчас, прогноз погоды и архив. Всё, что Вы хотите узнать о погоде Кемерово!

Поиск расширенной информации на нашем сайте:

Другие новости

Новости СМИ2

Главная страница сайта

Новости сайта

03.07.2017

Напоминаем, что на нашем специализированном сайте Метеоцентр.Азия вы можете получить высокодетализированные автоматические прогнозы погоды по пунктам России, СНГ и мира в авиационном формате (включающие направление и скорость ветра, видимость, явления погоды, количество и форму облачности, нижнюю и верхнюю границу облачности).


Погода Кемерово - сегодня

Время (UTC), дата Ветер
(°,м/с) 
Видим.   Явления Облачность Т
(°С)
Тd
(°С)
f(%) Тe
(°С)
Pmin
(гПа)
dP
(гПа)
Po
(мм)
O2
(г/м3)
Тmin Tmax R s Состояние
почвы
21 18.04.18 160 (Ю) 20000 м    8/0 верхняя 
[Ci fib]
-4.7 -8.3 76 -4  1022.2  -0.1  752  309           
00 19.04.18 тихо ()   20000 м    10/10 600 м 
[Sc]
-4 -6.7 81 -4  1022.9  0.7  753  309  -6.4         
03 19.04.18 170 (Ю) 20000 м    6/4 600 м верхняя 
[Cu hum|Ci fib]
+1.1 -9.5 45 1022.2  -0.3  753  303           
06 19.04.18 150 (ЮВ) 20000 м    5/4 600 м верхняя 
[Cu hum|Ci fib]
+3.2 -12.4 31 +3  1020.5  -1.5  752  300           
09 19.04.18 120 (ЮВ) 20000 м    8/4 600 м верхняя 
[Cu hum|Ci fib]
+4.3 -11.9 30 +5  1018.8  -1.6  750  299           
12 19.04.18 060 (СВ) 20000 м    4/1 600 м верхняя 
[Cu hum|Ci fib]
+4.6 -14.2 24 +5  1017.6  -1.3  749  298    +5.4       
15 19.04.18 250 (З) 20000 м    3/0 верхняя 
[Ci fib]
-3 -9.1 63 -3  1018.5  0.4  750  306           
18 19.04.18 260 (З) 20000 м    1/0 верхняя 
[Ci fib]
-5 -7.9 80 -5  1018.3  -0.3  749  308           
21 19.04.18 тихо ()   20000 м    4/0 верхняя 
[Ci fib]
-6 -8.4 83 -6  1019.2  0.9  750  310           
00 20.04.18 150 (ЮВ) 10 км    10/10 600 м 
[Sc]
-4.4 -6.4 86 -4  1021  1.9  752  308  -6.7         
03 20.04.18 210 (ЮЗ) 20000 м    10/0 средняя 
[Ac und]
+3.8 -8.7 40 +3  1021.1  0.5  752  300           
09 20.04.18 230 (ЮЗ) 4{12}  20000 м    10/4 600 м верхняя 
[Cu hum|Ci fib]
+10 -8.9 25 +9  1019.5  -0.9  751  293           
12 20.04.18 210 (ЮЗ) 4{10}  20000 м    10/0 верхняя 
[Ci fib]
+8.8 -8.2 29 +8  1019  -0.5  751  294    +10       
15 20.04.18 180 (Ю) 20000 м    3/0 верхняя 
[Ci fib]
+5.3 -6.1 44 +5  1019.1  -0.1  751  297           
18 20.04.18 170 (Ю) 20000 м    3/0 верхняя 
[Ci fib]
+2.1 -4.1 63 +1  1018.6  -0.7  750  300           
21 20.04.18 160 (Ю) 20000 м    4/0 верхняя 
[Ci fib]
+0.6 -2.8 78 -1  1017.8  -0.8  749  302           
00 21.04.18 150 (ЮВ) 20000 м    10/10 600 м 
[Sc]
+1.9 -1.9 76 1017  -0.8  749  300  +0.6         
03 21.04.18 170 (Ю) 20000 м    10/0 
[Sc]
+6.8 +0.1 62 +6  1016.5  -0.1  749  294           
09 21.04.18 190 (Ю) 5{11}  20000 м    10/10 600 м 
[Sc]
+13.1 +0.1 41 +12  1014.6  -1  748  287           
12 21.04.18 180 (Ю) 5{10}  20000 м    8/3 600 м верхняя 
[Sc|Ci fib]
+14 +0 38 +13  1013.7  -0.8  747  286    +14.6       
15 21.04.18 150 (ЮВ) 20000 м    8/5 600 м верхняя 
[Sc|Ci fib]
+8.9 -0.7 51 +10  1014.2  0.1  747  292           
18 21.04.18 070 (В) 20000 м    10/6 600 м верхняя 
[Sc|Ci fib]
+7.4 -1.4 54 +8  1014.4  0.1  747  293           
21 21.04.18 160 (Ю) 20000 м    8/5 600 м верхняя 
[Sc|Ci fib]
+5.5 -2.8 55 +5  1013.3  -1.2  746  295           
00 22.04.18 130 (ЮВ) 20000 м    8/0 верхняя 
[Ci fib]
+5.1 -3.3 55 +6  1011.7  -1.6  745  295  +4.7         
03 22.04.18 180 (Ю) 20000 м    9/8 600 м верхняя 
[Sc|Ci fib]
+13.8 -4.1 29 +13  1009.1  -2  744  286           
Время (UTC), дата Ветер
(°,м/с) 
Видим.   Явления Облачность Т
(°С)
Тd
(°С)
f(%) Тe
(°С)
Pmin
(гПа)
dP
(гПа)
Po
(мм)
O2
(г/м3)
Тmin Tmax R s Состояние
почвы

Для получения пояснительной информации подведите курсор к названию столбца.

ПОГОДА Кемерово - архив

Всё, что Вы хотите узнать о погоде Кемерово - удобно и подробно!

Выберите нужную дату (начиная с 1 января 2015* года) и нажмите кнопку "Найти".
Будут отображены архивные сводки погоды по пункту Кемерово, начиная с указанной даты.


Отображать данные в формате CSV (для использования в таблицах Excel)


Внимание! Наш архив погоды предназначен исключительно для личного некоммерческого использования в познавательных целях. Если Вам необходимы официальные справки о состоянии погоды (для производственных, юридических, коммерческих и т.п. целей), обращайтесь в органы Росгидромета.

*Примечание: данная дата относится к архиву по метеостанциям СССР (Россия, СНГ, Балтия).
Архив по метеостанциям Зарубежной Европы и Азии (кроме Китая) хранится 10 дней, по другим регионам земного шара (Китай, Африка, Америка, Австралия, Океания) - 1 день.

Кемерово - район местоположения метеостанции


Название, широта, долгота, высота метеостанции:
Кемерово (город) 55.2°ш. 86.1°д. 260 м над ур. моря [Российская Федерация]

Дополнительная информация

В oтличие oт бoльшинства пoгoдных сайтoв мы публикуем пoдрoбную метеoинфoрмацию в детальнoм прoфессиoнальнoм фoрмате.

Характеристики температуры и влажнoсти вoздуха измеряются на высoте 2 м в тени вдали oт зданий и деревьев.
Скoрoсть ветра измеряется на высoте 10 м (на урoвне рoста челoвека скoрoсть ветра ниже в 1.5-2 раза). Если метеoстанция нахoдится в гoрoде или в лесу, тo скoрoсть ветра занижена на 2-4 м/с пo сравнению с oткрытым местoм. Скoрoсть ветра над акватoриями крупных рек и oзёр, а также на вершинах хoлмoв на 2-5 м/с выше, чем в oбычных услoвиях.
Атмoсфернoе давление в разных тoчках местнoсти мoжет значительнo oтличаться oт давления на метеoстанции, в зависимoсти oт услoвий рельефа (при пoдъёме на 10 м давление пoнижается примернo на 1 мм рт.ст.).